Menu
Filed DateCase TypeNature of SuitCase TitleCase NumberJudge
4/3/2020Civil896Wang v. ZZ Ventures, Inc. et al20-cv-02270DMR
4/3/2020Civil480Stewart v. Experian Information Solutions, Inc. et al20-cv-02266SK
4/3/2020Civil190Reality Kats, LLC v. Mirsyl, Inc.20-cv-02271JSC
4/3/2020Civil550Quair v. San Mateo County Superior Court et al20-cv-02273JD
4/3/2020Civil530Poole v. CDCR Secretary20-cv-02283LHK
4/3/2020Civil864Mohammad v. Saul20-cv-02272JCS
4/3/2020Civil865McIlroy20-cv-02275YGR
4/3/2020Civil110KHO Corporation v. Integon National Insurance Company et al20-cv-02276SK
4/3/2020Civil555Jones v. CDCR Warden, Salinas Valley State Prison et al20-cv-02268HSG
4/3/2020Civil446Johnson v. Piazza et al20-cv-02264SVK
4/3/2020Civil110Hofmeyer v. Safeco Insurance Company of Illinois et al20-cv-02265KAW
4/3/2020Civil380H.K. et al v. Google, LLC20-cv-02257NC
4/3/2020Civil365Eggers v. Juul Labs, Inc. et al20-cv-02252WHO
4/3/2020Civil710Arteaga v. Wienerschnitzel Corporation et al20-cv-02267NC
4/2/2020Civil365Voet v. JUUL Labs, Inc. et al20-cv-02226WHO
4/2/2020Civil864Spruell v. Saul20-cv-02247NC
4/2/2020Civil830SMIC, Americas et al v. Innovative Foundry Technologies LLC20-cv-02256JCS
4/2/2020Civil791RJ v. Cigna Behavioral Health, Inc. et al20-cv-02255NC
4/2/2020Civil110Pacific Recovery Solutions et al v. United Behavioral Health et al20-cv-02249JCS
4/2/2020Civil110Pacific Recovery Solutions et al v. Cigna Behavioral Health, Inc. et al20-cv-02251JCS
4/2/2020Civil442Miller v. Infinite Percent Partners LLC et al20-cv-02253JCS
4/2/2020Civil365Metz v. JUUL Labs, Inc. et al20-cv-02224WHO
4/2/2020Civil370Lennon et al v. Reality Kats, LLC et al20-cv-02258DMR
4/2/2020Civil863Lee v Saul20-cv-02245VKD
4/2/2020Civil791LD et al v. United Behavioral Health et al20-cv-02254SVK
4/2/2020Civil365Kennedy v. Juul Labs, Inc. et al20-cv-02236WHO
4/2/2020Civil863Hunt v. Andrew M. Saul20-cv-02241RS
4/2/2020Civil365Hopkins County School District, By and Through the Hopkins County Board of Education v. Juul Labs, Inc.20-cv-02238WHO
4/2/2020Civil190Grosz v. Toptal, LLC, a Delaware limited liability company, et al20-cv-02259KAW
4/2/2020Civil791General Employees Trust Fund v. Facility Cleaning International, Inc.20-cv-02237DMR
4/2/2020Civil830Fitbit, Inc. v. Koninklijke Philips N.V.20-cv-02246DMR
4/2/2020Civil440Doe v. Barr et al20-cv-02263RMI
4/2/2020Civil365Detweiler v. Juul Labs, Inc. et al20-cv-02234WHO
4/2/2020Civil830Deep Web L.L.C. v. Ask Media Group, LLC20-cv-02262SVK
4/2/2020Civil370Carisi v. Events and Adventures California et al20-cv-02260SK
4/2/2020Civil195CARDOSO et al v. FCA US LLC20-cv-02250JSC
4/2/2020Civil365Byrd v. JUUL Labs, Inc. et al20-cv-02222WHO
4/2/2020Civil720Bradford v. Professional Technical Security Services Inc (Protech) et al20-cv-02242KAW
4/2/2020Civil360Barakat v. Costco Wholesale Corporation20-cv-02248JCS
4/2/2020Civil365Bailey v. Juul Labs, Inc. et al20-cv-02233WHO
4/2/2020Civil442Alvarez v. T-Mobile USA, Inc.20-cv-02244JCS
4/2/2020Civil365Abbott v. Juul Labs, Inc. et al20-cv-02235WHO
4/1/2020Civil365Westfall v. Juul Labs, Inc. et al20-cv-02217WHO
4/1/2020CriminalCRUSA v. Bui20-cr-00139BLF
4/1/2020Civil791TRUSTEES of the UNITED FOOD AND COMMERCIAL WORKERS NORTHERN CALIFORNIA EMPLOYERS JOINT PENSION TRUST FUND v. DAN MARTINELLI POULTRY COMPANY, INC. et al20-cv-02196LB
4/1/2020Civil485Threde v. Great Destinations, Inc.20-cv-02231TSH
4/1/2020Civil365Thacker v. JUUL Labs, Inc. et al20-cv-02223WHO
4/1/2020Civil365Temple v. JUUL Labs, Inc. et al20-cv-02214WHO
4/1/2020Civil360Sarmiento et al v. Home Depot U.S.A., Inc.20-cv-02225LB
4/1/2020Civil550Sanchez v. Eckobird et al20-cv-02220JCS